DW0805 Weather Reports


time (UTC)temp
F
wind
direction
speed
knots
gust
knots
rain 1hr
in
rain 24hr
in
rain mn
in
humidity
%
barometer
mb
20260902171514 63 232 7.8 12.2 0.00 0.13 0.09 89 1013.1
20260902165515 62 232 6.1 13.9 0.00 0.13 0.09 90 1013.3
20260902164515 62 233 10.4 13.9 0.00 0.13 0.09 90 1013.3
20260902161515 64 197 8.7 14.8 0.00 0.13 0.09 89 1013.4
20260902154514 62 233 8.7 13.0 0.00 0.13 0.09 90 1013.5
20260902152514 62 277 7.8 13.0 0.00 0.13 0.09 91 1013.6
20260902151514 62 221 7.8 13.9 0.00 0.13 0.09 91 1013.7
20260902145514 62 246 8.7 14.8 0.00 0.13 0.09 92 1013.7
20260902144514 62 222 7.0 13.9 0.00 0.13 0.09 93 1013.6
20260902140514 61 237 5.2 11.3 0.02 0.13 0.09 93 1013.7
20260902135514 60 248 5.2 8.7 0.05 0.13 0.09 93 1013.7
20260902134515 60 237 3.5 7.8 0.09 0.13 0.09 93 1013.7
20260902132514 59 237 5.2 8.7 0.09 0.13 0.09 92 1013.9
20260902131514 59 237 5.2 11.3 0.09 0.13 0.09 91 1014.0
20260902125515 62 315 14.8 24.3 0.05 0.09 0.05 84 1013.9
20260902124514 65 254 10.4 13.9 0.00 0.04 0.00 84 1013.7
20260902122514 67 233 8.7 14.8 0.00 0.04 0.00 80 1013.7
20260902120515 68 247 9.6 17.4 0.00 0.04 0.00 78 1013.8
20260902115515 67 228 8.7 20.0 0.00 0.04 0.00 77 1013.9
20260902114515 67 280 8.7 18.2 0.00 0.04 0.00 76 1013.8
20260902113514 68 244 10.4 18.2 0.00 0.04 0.00 76 1013.9
20260902111515 69 229 9.6 19.1 0.00 0.04 0.00 74 1013.9
20260902105514 68 236 11.3 18.2 0.00 0.04 0.00 76 1014.0
20260902104514 68 241 12.2 17.4 0.00 0.04 0.00 76 1014.0
20260902094515 67 248 11.3 18.2 0.00 0.04 0.00 78 1014.0
20260902091514 66 252 8.7 14.8 0.00 0.04 0.00 82 1014.1
20260902085514 66 313 8.7 14.8 0.00 0.04 0.00 83 1014.1
20260902084514 65 231 10.4 13.9 0.00 0.04 0.00 83 1014.1
20260902083514 65 307 7.0 11.3 0.00 0.04 0.00 86 1014.2
20260902081515 64 295 5.2 13.9 0.00 0.04 0.00 87 1014.1
20260902080515 63 236 11.3 14.8 0.00 0.04 0.00 87 1014.2
20260902075514 64 235 7.8 13.9 0.00 0.04 0.00 88 1014.1
20260902070515 63 223 7.8 13.9 0.00 0.04 0.00 90 1013.8
20260902065514 62 233 8.7 13.0 0.00 0.04 0.00 90 1013.9
20260902064516 62 234 7.8 13.0 0.00 0.04 0.00 90 1013.9
20260902063514 62 244 9.6 14.8 0.00 0.04 0.00 91 1013.9
20260902060515 61 228 7.8 13.0 0.00 0.04 0.00 91 1013.9
20260902051515 60 251 6.1 11.3 0.00 0.04 0.00 92 1013.9
20260902041515 59 230 6.1 12.2 0.00 0.04 0.00 92 1013.8
20260902034514 59 234 5.2 7.8 0.00 0.04 0.00 92 1013.9
20260902033514 59 217 5.2 10.4 0.00 0.04 0.00 92 1014.0
20260902032514 59 218 4.3 7.8 0.00 0.04 0.00 92 1014.0
20260902031514 59 232 4.3 8.7 0.00 0.04 0.00 92 1014.0
20260902024515 58 225 5.2 7.0 0.00 0.04 0.00 92 1014.1
20260902023514 57 219 3.5 7.0 0.00 0.04 0.00 92 1014.1
20260902020515 57 224 4.3 7.0 0.00 0.04 0.00 91 1014.0
20260902014515 57 220 1.7 5.2 0.00 0.04 0.00 91 1014.0
20260902013514 57 228 3.5 6.1 0.00 0.04 0.00 90 1014.0
20260902010514 58 257 2.6 6.1 0.00 0.04 0.00 88 1014.1
20260902005514 58 260 5.2 7.8 0.00 0.04 0.00 88 1014.2
20260902003514 58 253 5.2 13.0 0.00 0.04 0.00 87 1014.1
20260902001515 59 257 7.0 10.4 0.00 0.04 0.00 88 1014.2
20260901235515 58 269 6.1 10.4 0.00 0.04 0.00 88 1014.2
20260901234515 58 310 7.8 11.3 0.00 0.04 0.00 88 1014.2
20260901233514 58 284 5.2 13.9 0.00 0.04 0.00 88 1014.3
20260901231515 59 276 7.8 13.0 0.00 0.04 0.00 89 1014.2
20260901225516 59 271 10.4 14.8 0.00 0.04 0.00 91 1014.0
20260901222514 60 264 7.8 13.9 0.00 0.04 0.00 91 1013.8
20260901221509 60 248 7.8 13.0 0.00 0.04 0.00 91 1013.8
20260901220514 61 260 6.1 12.2 0.00 0.04 0.00 90 1013.8
20260901215515 60 274 3.5 6.1 0.00 0.00 0.00 88 1013.9
20260901213515 60 282 2.6 6.1 0.00 0.00 0.00 88 1013.8
20260901210514 59 272 1.7 2.6 0.00 0.00 0.00 87 1013.5
20260901203515 60 292 2.6 4.3 0.00 0.01 0.00 85 1013.5
20260901201514 61 286 1.7 5.2 0.00 0.01 0.00 84 1013.5
20260901200514 61 287 3.5 7.8 0.00 0.01 0.00 84 1013.4
20260901193514 62 291 2.6 7.8 0.00 0.01 0.00 82 1013.2
20260901184516 64 278 6.1 10.4 0.00 0.01 0.00 86 1012.7
20260901183514 64 232 7.8 11.3 0.00 0.01 0.00 86 1012.6
20260901182515 64 253 7.0 12.2 0.00 0.01 0.00 86 1012.6
20260901180514 64 274 6.1 13.0 0.00 0.01 0.00 86 1012.5
20260901175514 64 244 4.3 10.4 0.00 0.01 0.00 85 1012.4
20260901174514 64 246 6.1 11.3 0.00 0.01 0.00 84 1012.2